TimeICT,TemperatureF,Dew PointF,Humidity,Sea Level PressureIn,VisibilityMPH,Wind Direction,Wind SpeedMPH,Gust SpeedMPH,PrecipitationIn,Events,Conditions,WindDirDegrees,DateUTC
12:00 AM,80.6,71.6,74,29.71,5.6,West,5.8,-,N/A,,Scattered Clouds,260,2013-09-17 17:00:00
12:30 AM,80.6,71.6,74,29.71,5.6,West,5.8,-,N/A,,Scattered Clouds,270,2013-09-17 17:30:00
1:00 AM,80.6,71.6,74,29.68,5.6,WSW,6.9,-,N/A,,Scattered Clouds,250,2013-09-17 18:00:00
6:00 AM,80.6,71.6,74,29.68,5.6,West,5.8,-,N/A,,Scattered Clouds,260,2013-09-17 23:00:00
6:30 AM,80.6,71.6,74,29.68,5.6,West,4.6,-,N/A,,Scattered Clouds,270,2013-09-17 23:30:00
7:00 AM,79,79,100,29.76,6,West,4.5,,,,Overcast,270,2013-09-18 00:00:00
7:00 AM,80.6,69.8,70,29.68,5.6,WSW,5.8,-,N/A,,Scattered Clouds,250,2013-09-18 00:00:00
7:30 AM,80.6,71.6,74,29.71,5.6,NNW,4.6,-,N/A,,Scattered Clouds,330,2013-09-18 00:30:00
8:00 AM,80.6,71.6,74,29.71,6.2,NNW,3.5,-,N/A,,Mostly Cloudy,330,2013-09-18 01:00:00
8:30 AM,80.6,71.6,74,29.74,6.2,West,3.5,-,N/A,,Mostly Cloudy,280,2013-09-18 01:30:00
9:00 AM,82.4,71.6,70,29.74,6.2,West,4.6,-,N/A,,Mostly Cloudy,270,2013-09-18 02:00:00
9:30 AM,82.4,71.6,70,29.74,6.2,West,4.6,-,N/A,,Mostly Cloudy,280,2013-09-18 02:30:00
10:00 AM,84.2,73.4,70,29.74,6.2,West,6.9,-,N/A,,Mostly Cloudy,270,2013-09-18 03:00:00
10:30 AM,84.2,71.6,66,29.74,6.2,West,9.2,-,N/A,,Mostly Cloudy,280,2013-09-18 03:30:00
11:00 AM,84.2,73.4,70,29.74,6.2,West,8.1,-,N/A,,Mostly Cloudy,280,2013-09-18 04:00:00
11:30 AM,86.0,73.4,66,29.71,6.2,West,8.1,-,N/A,,Mostly Cloudy,260,2013-09-18 04:30:00
12:00 PM,86.0,73.4,66,29.71,6.2,West,8.1,-,N/A,,Mostly Cloudy,260,2013-09-18 05:00:00
12:30 PM,86.0,73.4,66,29.68,6.2,West,9.2,-,N/A,,Mostly Cloudy,270,2013-09-18 05:30:00
1:00 PM,87.8,73.4,62,29.68,6.2,West,12.7,-,N/A,,Mostly Cloudy,280,2013-09-18 06:00:00
1:30 PM,86.0,71.6,62,29.65,6.2,West,11.5,-,N/A,,Mostly Cloudy,280,2013-09-18 06:30:00
2:00 PM,86.0,73.4,66,29.65,6.2,WNW,9.2,-,N/A,,Mostly Cloudy,290,2013-09-18 07:00:00
2:30 PM,86.0,73.4,66,29.65,6.2,West,10.4,-,N/A,,Mostly Cloudy,280,2013-09-18 07:30:00
3:00 PM,86.0,73.4,66,29.62,6.2,WNW,6.9,-,N/A,,Mostly Cloudy,290,2013-09-18 08:00:00
3:30 PM,82.4,71.6,70,29.62,2.5,West,18.4,-,N/A,Rain,Rain,260,2013-09-18 08:30:00
4:00 PM,80.6,73.4,79,29.62,6.2,West,6.9,-,N/A,,Mostly Cloudy,280,2013-09-18 09:00:00
4:30 PM,80.6,73.4,79,29.62,6.2,West,6.9,-,N/A,,Mostly Cloudy,280,2013-09-18 09:30:00
5:00 PM,80.6,73.4,79,29.62,6.2,West,5.8,-,N/A,,Mostly Cloudy,280,2013-09-18 10:00:00
5:30 PM,80.6,73.4,79,29.62,6.2,West,5.8,-,N/A,,Mostly Cloudy,280,2013-09-18 10:30:00
6:00 PM,80.6,71.6,74,29.62,6.2,West,9.2,-,N/A,,Mostly Cloudy,260,2013-09-18 11:00:00
6:30 PM,80.6,71.6,74,29.65,5.6,West,8.1,-,N/A,Rain,Light Rain,280,2013-09-18 11:30:00
7:00 PM,78.8,71.6,78,29.65,5.6,West,4.6,-,N/A,Rain,Light Rain,280,2013-09-18 12:00:00
7:30 PM,78.8,73.4,83,29.68,5.6,NW,3.5,-,N/A,Rain,Light Rain,310,2013-09-18 12:30:00
8:00 PM,78.8,73.4,83,29.68,5.6,West,5.8,-,N/A,Rain,Light Rain,260,2013-09-18 13:00:00
8:30 PM,78.8,73.4,83,29.68,5.6,WSW,5.8,-,N/A,,Mostly Cloudy,240,2013-09-18 13:30:00
9:00 PM,78.8,73.4,83,29.68,5.6,WSW,6.9,-,N/A,,Mostly Cloudy,240,2013-09-18 14:00:00
9:30 PM,78.8,73.4,83,29.71,5.6,SW,6.9,-,N/A,,Mostly Cloudy,220,2013-09-18 14:30:00
10:00 PM,78.8,73.4,83,29.71,5.6,WSW,6.9,-,N/A,,Mostly Cloudy,240,2013-09-18 15:00:00
10:30 PM,78.8,75.2,89,29.68,5.6,WSW,6.9,-,N/A,,Mostly Cloudy,240,2013-09-18 15:30:00
11:00 PM,78.8,75.2,89,29.68,5.6,WSW,9.2,-,N/A,,Mostly Cloudy,240,2013-09-18 16:00:00
11:30 PM,78.8,75.2,89,29.68,5.6,West,10.4,-,N/A,,Mostly Cloudy,260,2013-09-18 16:30:00